This is the latest recevied weather packets stored in our database for station/object KW4UJ. If no packets are shown the sender has not sent any weather packets the latest 10 day(s).
| Time | Temp. | Humidity | Pressure | Rain* | Wind** | Luminosity | Snow |
|---|---|---|---|---|---|---|---|
| 1788439352 | 22.78° C | 98% | 1018.6 hPa | 0 mm | - | 55 W/m² | - |
| 1788439050 | 22.78° C | 98% | 1018.3 hPa | 0 mm | - | 71 W/m² | - |
| 1788438750 | 22.78° C | 98% | 1018.5 hPa | 0 mm | - | 52 W/m² | - |
| 1788438449 | 22.78° C | 98% | 1018.5 hPa | 0 mm | - | 48 W/m² | - |
| 1788438144 | 22.78° C | 98% | 1018.5 hPa | 0 mm | - | 46 W/m² | - |
| 1788437842 | 22.78° C | 98% | 1018.5 hPa | 0 mm | - | 30 W/m² | - |
| 1788437539 | 22.78° C | 98% | 1018.7 hPa | 0 mm | - | 30 W/m² | - |
| 1788437238 | 22.78° C | 98% | 1018.5 hPa | 0 mm | - | 29 W/m² | - |
| 1788436932 | 22.78° C | 98% | 1018.8 hPa | 0 mm | - | 23 W/m² | - |
| 1788436632 | 22.78° C | 98% | 1018.8 hPa | 0 mm | - | 20 W/m² | - |
| 1788436327 | 22.78° C | 98% | 1018.7 hPa | 0 mm | - | 19 W/m² | - |
| 1788436027 | 22.78° C | 97% | 1018.7 hPa | 0 mm | - | 15 W/m² | - |
| 1788435722 | 22.78° C | 97% | 1018.7 hPa | 0 mm | - | 13 W/m² | - |
| 1788435417 | 22.78° C | 97% | 1018.6 hPa | 0 mm | - | 10 W/m² | - |
| 1788435114 | 22.78° C | 97% | 1018.8 hPa | 0 mm | - | 11 W/m² | - |
| 1788434809 | 22.78° C | 97% | 1018.5 hPa | 0 mm | - | 15 W/m² | - |
| 1788434504 | 22.78° C | 97% | 1018.5 hPa | 0 mm | - | 10 W/m² | - |
| 1788434203 | 22.78° C | 97% | 1018.2 hPa | 0 mm | - | 17 W/m² | - |
| 1788433898 | 22.78° C | 97% | 1017.5 hPa | 0 mm | - | 15 W/m² | - |
| 1788433595 | 22.78° C | 97% | 1017.5 hPa | 0 mm | - | 9 W/m² | - |
| 1788433290 | 22.78° C | 97% | 1017.4 hPa | 0 mm | - | 5 W/m² | - |
| 1788432985 | 22.78° C | 97% | 1017.5 hPa | 0 mm | - | 4 W/m² | - |
| 1788432680 | 22.78° C | 97% | 1017.5 hPa | 0 mm | - | 2 W/m² | - |
| 1788432379 | 22.78° C | 97% | 1017.3 hPa | 0 mm | - | 1 W/m² | - |
| 1788432075 | 22.78° C | 97% | 1017.1 hPa | 0 mm | - | 1 W/m² | - |
* Rain latest hour (hover to see other rain measurements)
** Current wind speed in m/s (hover to see current wind gust speed)